Welcome to the New NWS' Forecast!
Most changes are behind the scenes, but click here for differences you might notice.

Regional Weather Roundup (RWR)

Issued by National Weather Service (NWS)

                            
000
ASUS46 KSEW 172110
RWRWA 

WASHINGTON REGIONAL WEATHER ROUNDUP
NATIONAL WEATHER SERVICE SEATTLE WA
200 PM PDT MON SEP 17 2018

NOTE:"FAIR" INDICATES FEW OR NO CLOUDS BELOW 12,000 FEET WITH NO 
SIGNIFICANT WEATHER AND/OR OBSTRUCTIONS TO VISIBILITY.

WAZ507-509-555>559-172200-
SEATTLE, TACOMA, EVERETT, AND VICINITY
  
CITY           SKY/WX    TMP DP  RH WIND       PRES   REMARKS
EVERETT        SUNNY     61  43  51 NW9       30.13F                  
BOEING FIELD   MOSUNNY   64  43  46 NW8       30.12F                  
RENTON         SUNNY     65  44  46 NW7       30.11F                  
SEATAC AIRPORT MOSUNNY   63  44  50 W9        30.12F                  
JBLM-MCCHORD   NOT AVBL                                               
PUYALLUP       FAIR      64  50  59 VRB5      30.11F                  
BREMERTON      MOSUNNY   63  44  50 E7        30.12F                  
JBLM-FT LEWIS  NOT AVBL                                               
TACOMA NARROWS MOSUNNY   59  44  57 VRB3      30.13S                  
$$
 
WAZ001-503-506-510-514-515-172200-
NORTH INTERIOR
  
CITY           SKY/WX    TMP DP  RH WIND       PRES   REMARKS
BELLINGHAM     SUNNY     62  43  49 S7        30.13F                  
FRIDAY HARBOR  SUNNY     64  44  48 VRB7      30.15F                  
EASTSOUND      SUNNY     57  46  67 N5        30.13F                  
PORT ANGELES   SUNNY     58  45  62 N7        30.15F                  
EDIZ HOOK      FAIR      54  49  83 W6        30.15F                  
PORT TOWNSEND  FAIR      61  43  51 NW9       30.13F                  
NAS WHIDBEY    NOT AVBL                                               
ARLINGTON      SUNNY     63  47  55 NW7       30.12F                  
BURLINGTON     SUNNY     63  45  51 VRB5G12   30.12F                  
$$
 
WAZ020-022-039-040-504-511-512-172200-
SOUTHWEST INTERIOR
  
CITY           SKY/WX    TMP DP  RH WIND       PRES   REMARKS
SHELTON        PTSUNNY   63  45  51 VRB5      30.10F                  
OLYMPIA        PTSUNNY   60  46  59 N7        30.12F                  
CHEHALIS       FAIR      63  50  63 NE6       30.12F                  
KELSO          MOSUNNY   66  47  50 VRB7      30.10F                  
VANCOUVER      PTSUNNY   67  47  48 NW9       30.07F                  
SCAPPOOSE, OR  MOSUNNY   67  45  45 N10       30.07F                  
PORTLAND, OR   PTSUNNY   67  47  48 NW12      30.07F                  
$$
 
WAZ021-516-517-172200-
WASHINGTON COAST
  
CITY           SKY/WX    TMP DP  RH WIND       PRES   REMARKS
FORKS          PTSUNNY   57  45  64 NW6       30.14S                  
HOQUIAM        PTSUNNY   61  50  67 SW9       30.13F                  
ASTORIA, OR    MOSUNNY   65  48  54 NW15      30.10F                  
$$
 
WAZ019-023-024-040-567>569-172200-
CASCADE MOUNTAINS AND COLUMBIA GORGE
  
CITY           SKY/WX    TMP DP  RH WIND       PRES   REMARKS
STAMPEDE PASS  SUNNY     53  41  63 VRB6      30.09F                  
TROUTDALE, OR  PTSUNNY   65  49  56 SW5       30.07F                  
HOOD RIVER, OR MOCLDY    64  43  45 CALM      30.05F                  
THE DALLES, OR PTSUNNY   70  45  40 VRB3      30.03F                  
$$

WAZ026-027-041>044-520-521-172200-
EAST SLOPES
  
CITY           SKY/WX    TMP DP  RH WIND       PRES   REMARKS
OMAK           SUNNY     68  33  27 SE7       30.06F                  
WENATCHEE      SUNNY     66  34  30 SE7       30.04F                  
ELLENSBURG     MOSUNNY   67  35  30 S7        30.06F                  
YAKIMA         PTSUNNY   67  36  31 VRB3      30.06F                  
SUNNYSIDE ARPT MOCLDY    66  45  46 NE3       30.06F                  
YAKIMA TC      NOT AVBL                                               
$$

WAZ028-034-035-172200-
COLUMBIA BASIN
  
CITY           SKY/WX    TMP DP  RH WIND       PRES   REMARKS
EPHRATA        MOSUNNY   67  32  27 VRB3      30.05F                  
MOSES LAKE     MOSUNNY   67  32  27 NE6       30.06F                  
PASCO          PTSUNNY   69  39  33 MISG      30.06F                  
RICHLAND ARPT  MOCLDY    68  39  34 NE3       30.06F                  
HERMISTON, OR  PTSUNNY   70  41  34 N7        30.04F                  
$$

WAZ036>038-172200-
NORTHEAST WASHINGTON
  
CITY           SKY/WX    TMP DP  RH WIND       PRES   REMARKS
SPOKANE GEIGER PTSUNNY   63  36  36 VRB3      30.07F                  
SPOKANE FELTS  MOSUNNY   65  33  30 VRB3      30.08F                  
FAIRCHILD AFB  NOT AVBL                                               
COEURDALENE,ID MOSUNNY   64  38  38 VRB5      30.08F                  
DEER PARK      SUNNY     63  35  35 W5        30.09F                  
$$

WAZ029>033-172200-
SOUTHEAST WASHINGTON
  
CITY           SKY/WX    TMP DP  RH WIND       PRES   REMARKS
PULLMAN        PTSUNNY   63  39  41 VRB3      30.08F                  
LEWISTON, ID   PTSUNNY   70  41  34 VRB5      30.03F                  
WALLA WALLA    MOSUNNY   68  36  30 N7        30.04F                  
PENDLETON, OR  MOSUNNY   68  38  33 VRB6      30.03F                  
$$